Weather History for Maxwell AFB, AL

Change the Weather History Date:

Wednesday, April 10, 2013

  Actual Average Record
Temperature  
Mean Temperature 72 °F -  
Max Temperature 87 °F 75 °F 91 °F (1999)
Min Temperature 58 °F 53 °F 44 °F (2003)
Cooling Degree Days 8    
Growing Degree Days 22 (Base 50)    
Moisture  
Dew Point 59 °F    
Average Humidity 65    
Maximum Humidity 100    
Minimum Humidity 35    
Precipitation  
Precipitation 0.00 in - - ()
Sea Level Pressure  
Sea Level Pressure 30.01 in    
Wind  
Wind Speed 6 mph (SSE)    
Max Wind Speed 17 mph    
Max Gust Speed 23 mph    
Visibility 9 miles    
Events Rain    
Averages and records for this station are not official NWS values.
T = Trace of Precipitation, MM = Missing Value Source: NWS Daily Summary

Daily Weather History Graph

Daily Weather History Graph

Search for Another Location

Airport:

Trip Planner

Search our weather history database for the weather conditions in past years. The results will help you decide how hot, cold, wet, or windy it might be!

Date:

Astronomy

Apr. 10, 2013 Rise Set
Actual Time 6:21 AM CDT 7:11 PM CDT
Civil Twilight 5:57 AM CDT 7:36 PM CDT
Nautical Twilight 5:27 AM CDT 8:06 PM CDT
Astronomical Twilight 4:57 AM CDT 8:36 PM CDT
Moon 6:19 AM CDT (4/10) 7:43 PM CDT (4/10)
Length of Visible Light 13h 39m
Length of Day
12h 49m
New Moon, 0% of the Moon is Illuminated
Apr 10
New Moon
Apr 18
First Quarter
Apr 25
Full
May 2
Last Quarter
May 9
New

Hourly Weather History & Observations

Time (CDT) Temp. Heat Index Dew Point Humidity Pressure Visibility Wind Dir Wind Speed Gust Speed Precip Events Conditions
12:58 AM 63.5 °F - 58.5 °F 84% 30.08 in 10.0 mi Calm Calm - N/A   Clear
1:58 AM 62.2 °F - 60.6 °F 94% 30.06 in 10.0 mi Calm Calm - N/A   Clear
2:58 AM 60.4 °F - 57.9 °F 91% 30.03 in 10.0 mi SE 4.6 mph - N/A   Clear
3:58 AM 61.0 °F - 55.9 °F 83% 30.03 in 10.0 mi SE 4.6 mph - N/A   Clear
4:58 AM 60.4 °F - 56.5 °F 87% 30.03 in 10.0 mi SSE 2.3 mph - N/A   Clear
5:58 AM 58.5 °F - 55.8 °F 91% 30.04 in 10.0 mi Calm Calm - N/A   Clear
6:18 AM 59.0 °F - 57.2 °F 94% 30.03 in 1.8 mi North 1.2 mph - N/A   Clear
6:23 AM 59.0 °F - 59.0 °F 100% 30.03 in 2.5 mi NNW 2.3 mph - N/A   Clear
6:28 AM 59.0 °F - 57.2 °F 94% 30.03 in 8.0 mi NNW 2.3 mph - N/A   Clear
6:58 AM 58.1 °F - 57.6 °F 98% 30.04 in 10.0 mi North 2.3 mph - N/A   Clear
7:58 AM 66.6 °F - 59.0 °F 77% 30.06 in 10.0 mi ESE 6.9 mph - N/A   Clear
8:58 AM 72.7 °F - 58.6 °F 61% 30.09 in 10.0 mi SSE 6.9 mph - N/A   Clear
9:58 AM 77.2 °F - 60.1 °F 55% 30.08 in 10.0 mi SE 17.3 mph - N/A   Clear
10:58 AM 80.8 °F 81.8 °F 61.5 °F 52% 30.08 in 10.0 mi SE 13.8 mph 19.6 mph N/A   Clear
11:13 AM 80.6 °F 81.5 °F 60.8 °F 51% 30.07 in 10.0 mi South 13.8 mph - N/A   Partly Cloudy
11:58 AM 80.8 °F 81.6 °F 61.3 °F 51% 30.07 in 10.0 mi South 11.5 mph 16.1 mph N/A   Scattered Clouds
12:58 PM 84.6 °F 84.4 °F 59.7 °F 43% 30.05 in 10.0 mi South 12.7 mph 18.4 mph N/A   Partly Cloudy
1:58 PM 84.6 °F 84.0 °F 58.6 °F 41% 30.03 in 10.0 mi SE 15.0 mph - N/A   Scattered Clouds
2:08 PM 86.0 °F 84.9 °F 57.2 °F 37% 30.01 in 10.0 mi ESE 15.0 mph - N/A   Scattered Clouds
2:38 PM 87.8 °F 86.5 °F 57.2 °F 35% 30.00 in 10.0 mi South 17.3 mph 23.0 mph N/A   Mostly Cloudy
2:58 PM 85.5 °F 84.6 °F 58.1 °F 39% 30.00 in 10.0 mi SSE 10.4 mph - N/A   Scattered Clouds
3:58 PM 85.1 °F 84.3 °F 57.6 °F 39% 29.98 in 10.0 mi South 10.4 mph - N/A   Partly Cloudy
4:58 PM 86.2 °F 85.2 °F 57.6 °F 38% 29.96 in 10.0 mi SSE 9.2 mph - N/A   Scattered Clouds
5:58 PM 84.9 °F 84.4 °F 58.5 °F 41% 29.94 in 10.0 mi SSE 10.4 mph - N/A   Scattered Clouds
6:58 PM 78.8 °F - 59.4 °F 51% 29.93 in 10.0 mi SSE 9.2 mph - N/A   Scattered Clouds
7:56 PM 71.6 °F - 59.0 °F 64% 29.91 in 10.0 mi SSE 8.1 mph - N/A Rain Light Rain
7:58 PM 72.3 °F - 58.8 °F 62% 29.92 in 10.0 mi SSE 8.1 mph - N/A Rain Light Rain
8:03 PM 71.6 °F - 59.0 °F 64% 29.91 in 10.0 mi SSE 8.1 mph - N/A   Clear
8:58 PM 70.7 °F - 59.0 °F 66% 29.92 in 10.0 mi South 8.1 mph - 0.00 in   Clear
9:58 PM 71.4 °F - 59.0 °F 65% 29.92 in 10.0 mi South 6.9 mph - N/A   Clear
10:58 PM 70.2 °F - 58.6 °F 67% 29.93 in 10.0 mi South 5.8 mph - N/A   Clear
11:58 PM 68.2 °F - 58.6 °F 71% 29.93 in 10.0 mi South 4.6 mph - N/A   Clear